QPF
0.00 0.00 0.02 0.03 0.02 0.01 0.00 0.00 0.00 0.00 0.01 0.01 0.03 0.04 0.05 0.03 0.01 0.00 0.00 0.00 0.00 0.00 0.00 0.01 0.01 0.02 0.02 0.03 0.03 0.05 0.08 0.08 0.08 0.08 0.07 0.07 0.07 0.07 0.07 0.06 0.06 0.08 0.09 0.09
0.00 0.01 0.02 0.02 0.02 0.01 0.00 0.00 0.00 0.00 0.00 0.01 0.02 0.03 0.04 0.03 0.02 0.01 0.00 0.00 0.00 0.00 0.01 0.01 0.01 0.01 0.02 0.03 0.04 0.06 0.07 0.09 0.10 0.10 0.10 0.10 0.09 0.08 0.08 0.08 0.10 0.11 0.11 0.10
0.00 0.00 0.01 0.01 0.00 0.00 0.00 0.00 0.00 0.00 0.00 0.01 0.01 0.02 0.03 0.04 0.03 0.02 0.01 0.00 0.00 0.01 0.01 0.01 0.01 0.02 0.02 0.02 0.05 0.07 0.09 0.11 0.11 0.11 0.11 0.09 0.10 0.10 0.11 0.12 0.12 0.12 0.11 0.10
0.00 0.00 0.01 0.00 0.00 0.00 0.00 0.00 0.00 0.00 0.00 0.00 0.01 0.02 0.03 0.04 0.04 0.05 0.04 0.02 0.02 0.04 0.03 0.03 0.02 0.03 0.03 0.04 0.06 0.07 0.08 0.10 0.12 0.12 0.12 0.12 0.12 0.12 0.11 0.11 0.11 0.10 0.08 0.08
0.00 0.00 0.00 0.00 0.00 0.00 0.00 0.00 0.00 0.00 0.00 0.01 0.01 0.01 0.03 0.02 0.02 0.07 0.06 0.03 0.04 0.05 0.03 0.04 0.04 0.04 0.05 0.06 0.09 0.10 0.11 0.12 0.12 0.13 0.15 0.14 0.13 0.11 0.10 0.10 0.09 0.08 0.07 0.06
0.01 0.01 0.01 0.01 0.00 0.00 0.00 0.01 0.01 0.00 0.01 0.03 0.05 0.05 0.06 0.05 0.02 0.03 0.04 0.04 0.04 0.04 0.04 0.06 0.07 0.06 0.06 0.08 0.11 0.13 0.14 0.15 0.15 0.16 0.16 0.14 0.12 0.11 0.11 0.11 0.09 0.08 0.07 0.06
0.03 0.03 0.02 0.01 0.00 0.00 0.02 0.05 0.02 0.01 0.01 0.03 0.09 0.08 0.07 0.07 0.05 0.03 0.02 0.03 0.04 0.05 0.06 0.09 0.09 0.08 0.10 0.10 0.10 0.12 0.14 0.14 0.13 0.12 0.11 0.10 0.09 0.08 0.08 0.07 0.05 0.05 0.05 0.05
0.05 0.04 0.03 0.01 0.00 0.02 0.05 0.04 0.02 0.01 0.02 0.04 0.07 0.08 0.08 0.07 0.06 0.04 0.04 0.04 0.03 0.04 0.05 0.08 0.08 0.07 0.07 0.08 0.09 0.10 0.09 0.09 0.10 0.11 0.10 0.09 0.08 0.07 0.06 0.05 0.04 0.04 0.04 0.03
0.05 0.05 0.05 0.02 0.01 0.02 0.02 0.02 0.02 0.03 0.04 0.08 0.09 0.08 0.08 0.07 0.07 0.06 0.05 0.06 0.06 0.05 0.05 0.05 0.05 0.05 0.04 0.05 0.05 0.06 0.08 0.08 0.07 0.07 0.06 0.06 0.06 0.05 0.05 0.04 0.03 0.03 0.02 0.02
0.05 0.04 0.04 0.02 0.02 0.03 0.03 0.03 0.03 0.03 0.05 0.06 0.08 0.07 0.09 0.07 0.07 0.07 0.06 0.07 0.08 0.07 0.06 0.06 0.06 0.06 0.05 0.04 0.04 0.05 0.06 0.06 0.05 0.04 0.03 0.02 0.02 0.02 0.01 0.01 0.01 0.01 0.01 0.01
0.09 0.09 0.08 0.05 0.05 0.04 0.05 0.06 0.05 0.05 0.06 0.08 0.09 0.07 0.06 0.05 0.05 0.05 0.04 0.04 0.05 0.07 0.07 0.06 0.07 0.07 0.07 0.07 0.06 0.05 0.05 0.05 0.03 0.03 0.02 0.02 0.01 0.01 0.01 0.01 0.01 0.01 0.01 0.01
0.09 0.10 0.10 0.07 0.04 0.04 0.06 0.07 0.07 0.08 0.09 0.10 0.11 0.08 0.06 0.06 0.05 0.04 0.04 0.03 0.04 0.04 0.05 0.06 0.06 0.06 0.05 0.04 0.03 0.03 0.02 0.02 0.01 0.01 0.02 0.02 0.02 0.02 0.02 0.01 0.01 0.01 0.01 0.01
0.09 0.08 0.07 0.06 0.06 0.06 0.08 0.09 0.09 0.09 0.11 0.11 0.11 0.09 0.07 0.05 0.05 0.05 0.04 0.04 0.04 0.05 0.05 0.07 0.07 0.07 0.05 0.04 0.03 0.03 0.03 0.02 0.02 0.02 0.02 0.02 0.01 0.01 0.01 0.01 0.00 0.00 0.00 0.00
0.07 0.08 0.08 0.07 0.08 0.08 0.07 0.07 0.08 0.09 0.10 0.11 0.12 0.11 0.09 0.07 0.07 0.07 0.07 0.07 0.07 0.07 0.08 0.08 0.07 0.06 0.04 0.03 0.02 0.02 0.01 0.01 0.01 0.01 0.01 0.01 0.01 0.01 0.01 0.01 0.01 0.00 0.00 0.00
0.06 0.08 0.11 0.10 0.10 0.09 0.09 0.08 0.07 0.07 0.08 0.11 0.13 0.13 0.13 0.13 0.12 0.11 0.10 0.10 0.09 0.09 0.09 0.08 0.07 0.06 0.05 0.04 0.03 0.03 0.02 0.02 0.02 0.02 0.02 0.02 0.01 0.01 0.01 0.00 0.00 0.00 0.00 0.00
0.09 0.10 0.13 0.14 0.17 0.15 0.14 0.12 0.10 0.09 0.09 0.10 0.11 0.12 0.13 0.15 0.16 0.14 0.12 0.11 0.10 0.10 0.09 0.08 0.07 0.06 0.05 0.04 0.03 0.03 0.02 0.02 0.02 0.01 0.01 0.01 0.00 0.00 0.00 0.00 0.00 0.00 0.00 0.00
0.12 0.14 0.15 0.14 0.16 0.17 0.18 0.16 0.13 0.11 0.11 0.13 0.14 0.15 0.16 0.17 0.17 0.15 0.11 0.08 0.06 0.06 0.05 0.05 0.04 0.03 0.02 0.02 0.02 0.01 0.01 0.01 0.00 0.00 0.00 0.00 0.00 0.00 0.00 0.00 0.00 0.00 0.00 0.00
0.11 0.14 0.16 0.14 0.14 0.16 0.17 0.15 0.14 0.12 0.11 0.12 0.14 0.15 0.14 0.13 0.11 0.09 0.07 0.05 0.04 0.04 0.03 0.02 0.02 0.01 0.01 0.01 0.01 0.00 0.00 0.00 0.00 0.00 0.00 0.00 0.00 0.00 0.00 0.00 0.00 0.00 0.00 0.00
0.11 0.12 0.13 0.12 0.11 0.11 0.12 0.12 0.13 0.12 0.11 0.09 0.09 0.09 0.08 0.07 0.06 0.05 0.04 0.04 0.03 0.03 0.02 0.01 0.01 0.00 0.00 0.00 0.00 0.00 0.00 0.00 0.00 0.00 0.00 0.00 0.00 0.00 0.00 0.00 0.00 0.00 0.00 0.00
0.11 0.09 0.08 0.08 0.07 0.07 0.08 0.08 0.07 0.08 0.09 0.07 0.06 0.06 0.06 0.05 0.03 0.03 0.02 0.03 0.03 0.02 0.02 0.01 0.00 0.01 0.00 0.00 0.00 0.00 0.00 0.00 0.00 0.00 0.00 0.00 0.01 0.01 0.00 0.00 0.00 0.00 0.00 0.00
0.08 0.07 0.06 0.05 0.05 0.05 0.06 0.06 0.05 0.06 0.06 0.07 0.07 0.07 0.06 0.04 0.03 0.02 0.02 0.03 0.02 0.01 0.00 0.00 0.01 0.01 0.00 0.00 0.00 0.00 0.00 0.00 0.00 0.00 0.00 0.00 0.00 0.00 0.00 0.00 0.00 0.00 0.00 0.00
0.08 0.07 0.06 0.05 0.04 0.05 0.05 0.05 0.05 0.05 0.05 0.05 0.05 0.05 0.05 0.04 0.03 0.03 0.02 0.02 0.01 0.01 0.00 0.00 0.00 0.00 0.00 0.00 0.00 0.00 0.00 0.00 0.00 0.00 0.00 0.00 0.00 0.00 0.00 0.00 0.00 0.01 0.01 0.01
0.08 0.08 0.08 0.06 0.04 0.04 0.05 0.05 0.04 0.04 0.04 0.04 0.03 0.03 0.03 0.03 0.02 0.02 0.02 0.01 0.00 0.00 0.00 0.00 0.00 0.00 0.00 0.00 0.00 0.00 0.00 0.00 0.00 0.00 0.00 0.00 0.00 0.00 0.01 0.01 0.01 0.01 0.01 0.00
0.08 0.08 0.08 0.07 0.05 0.04 0.05 0.05 0.05 0.03 0.03 0.03 0.03 0.02 0.02 0.01 0.01 0.00 0.00 0.00 0.00 0.00 0.00 0.00 0.00 0.00 0.00 0.00 0.00 0.00 0.00 0.00 0.00 0.00 0.00 0.00 0.00 0.00 0.00 0.00 0.00 0.00 0.00 0.00
0.06 0.06 0.06 0.06 0.05 0.04 0.04 0.04 0.04 0.03 0.03 0.02 0.02 0.01 0.01 0.01 0.00 0.00 0.00 0.00 0.00 0.00 0.00 0.00 0.00 0.00 0.00 0.00 0.00 0.00 0.00 0.00 0.00 0.00 0.00 0.00 0.00 0.00 0.00 0.00 0.00 0.00 0.00 0.00
0.04 0.04 0.04 0.03 0.02 0.02 0.01 0.02 0.02 0.02 0.02 0.02 0.01 0.01 0.00 0.00 0.00 0.00 0.00 0.00 0.00 0.00 0.00 0.00 0.00 0.00 0.00 0.00 0.00 0.00 0.00 0.00 0.00 0.00 0.00 0.00 0.00 0.00 0.00 0.00 0.00 0.00 0.00 0.00
0.03 0.03 0.02 0.01 0.01 0.01 0.01 0.01 0.01 0.01 0.01 0.01 0.01 0.01 0.00 0.00 0.00 0.00 0.00 0.00 0.00 0.00 0.00 0.00 0.00 0.00 0.00 0.00 0.01 0.00 0.00 0.00 0.00 0.00 0.00 0.00 0.00 0.00 0.00 0.00 0.00 0.00 0.00 0.00
MSLP
1004.46 1004.92 1005.35 1005.74 1006.04 1006.21 1006.22 1006.05 1005.69 1005.15 1004.49 1003.77 1003.06 1002.46 1002.03 1001.83 1001.88 1002.18 1002.71 1003.40 1004.20 1005.05 1005.88 1006.66 1007.35 1007.96 1008.49 1008.95 1009.36 1009.74 1010.10 1010.45 1010.81 1011.18 1011.56 1011.97 1012.40 1012.86 1013.33 1013.82 1014.31 1014.77 1015.19 1015.54
1004.96 1005.39 1005.72 1005.94 1006.04 1005.99 1005.80 1005.46 1005.01 1004.46 1003.86 1003.26 1002.71 1002.27 1001.97 1001.85 1001.93 1002.20 1002.63 1003.21 1003.89 1004.63 1005.40 1006.16 1006.89 1007.58 1008.22 1008.81 1009.34 1009.82 1010.26 1010.66 1011.04 1011.41 1011.79 1012.19 1012.63 1013.10 1013.61 1014.13 1014.66 1015.16 1015.60 1015.97
1005.37 1005.73 1005.95 1006.02 1005.93 1005.69 1005.34 1004.89 1004.38 1003.85 1003.33 1002.85 1002.46 1002.16 1001.98 1001.93 1002.01 1002.22 1002.55 1002.99 1003.52 1004.13 1004.81 1005.53 1006.27 1007.02 1007.76 1008.46 1009.11 1009.71 1010.24 1010.71 1011.14 1011.55 1011.95 1012.37 1012.83 1013.34 1013.89 1014.46 1015.03 1015.58 1016.06 1016.45
1005.66 1005.93 1006.03 1005.95 1005.71 1005.33 1004.86 1004.34 1003.82 1003.34 1002.91 1002.58 1002.33 1002.18 1002.10 1002.11 1002.19 1002.34 1002.55 1002.85 1003.24 1003.71 1004.28 1004.94 1005.67 1006.46 1007.27 1008.07 1008.83 1009.53 1010.16 1010.71 1011.20 1011.65 1012.09 1012.54 1013.04 1013.58 1014.18 1014.80 1015.42 1016.01 1016.53 1016.95
1005.83 1005.98 1005.95 1005.74 1005.38 1004.91 1004.38 1003.84 1003.36 1002.95 1002.65 1002.46 1002.36 1002.34 1002.38 1002.44 1002.52 1002.63 1002.76 1002.94 1003.19 1003.54 1004.01 1004.60 1005.30 1006.10 1006.95 1007.81 1008.66 1009.44 1010.14 1010.76 1011.30 1011.79 1012.27 1012.76 1013.28 1013.86 1014.50 1015.16 1015.82 1016.45 1017.00 1017.45
1005.87 1005.88 1005.72 1005.41 1004.98 1004.46 1003.93 1003.43 1003.02 1002.73 1002.56 1002.52 1002.58 1002.70 1002.84 1002.97 1003.08 1003.16 1003.23 1003.33 1003.49 1003.75 1004.13 1004.66 1005.32 1006.10 1006.97 1007.86 1008.74 1009.57 1010.31 1010.96 1011.54 1012.06 1012.55 1013.06 1013.60 1014.20 1014.86 1015.54 1016.24 1016.89 1017.47 1017.93
1005.76 1005.63 1005.37 1004.99 1004.53 1004.02 1003.54 1003.13 1002.83 1002.68 1002.67 1002.79 1003.00 1003.26 1003.51 1003.72 1003.87 1003.97 1004.03 1004.08 1004.19 1004.39 1004.71 1005.19 1005.81 1006.56 1007.41 1008.29 1009.17 1009.99 1010.74 1011.39 1011.96 1012.48 1012.97 1013.47 1014.01 1014.61 1015.27 1015.97 1016.66 1017.33 1017.92 1018.39
1005.50 1005.25 1004.93 1004.52 1004.08 1003.64 1003.26 1002.98 1002.83 1002.84 1002.99 1003.27 1003.62 1004.01 1004.37 1004.67 1004.89 1005.03 1005.11 1005.18 1005.28 1005.45 1005.75 1006.19 1006.77 1007.48 1008.27 1009.11 1009.94 1010.72 1011.42 1012.04 1012.58 1013.06 1013.52 1013.99 1014.51 1015.09 1015.73 1016.42 1017.11 1017.78 1018.37 1018.85
1005.10 1004.79 1004.43 1004.06 1003.69 1003.36 1003.12 1003.00 1003.02 1003.20 1003.51 1003.94 1004.43 1004.93 1005.39 1005.79 1006.09 1006.29 1006.43 1006.54 1006.66 1006.85 1007.14 1007.56 1008.10 1008.75 1009.48 1010.24 1010.99 1011.69 1012.32 1012.86 1013.33 1013.75 1014.16 1014.59 1015.07 1015.62 1016.23 1016.90 1017.57 1018.23 1018.82 1019.32
1004.63 1004.30 1003.97 1003.67 1003.42 1003.24 1003.16 1003.22 1003.41 1003.74 1004.21 1004.76 1005.36 1005.96 1006.52 1006.99 1007.37 1007.66 1007.87 1008.04 1008.22 1008.44 1008.74 1009.14 1009.64 1010.23 1010.88 1011.54 1012.19 1012.78 1013.31 1013.76 1014.14 1014.50 1014.84 1015.22 1015.66 1016.17 1016.76 1017.39 1018.06 1018.70 1019.29 1019.79
1004.18 1003.88 1003.63 1003.44 1003.33 1003.31 1003.41 1003.63 1003.99 1004.46 1005.04 1005.69 1006.38 1007.05 1007.67 1008.21 1008.66 1009.02 1009.31 1009.55 1009.78 1010.05 1010.36 1010.75 1011.22 1011.74 1012.29 1012.85 1013.38 1013.86 1014.27 1014.63 1014.93 1015.22 1015.51 1015.85 1016.25 1016.74 1017.29 1017.91 1018.56 1019.19 1019.78 1020.29
1003.87 1003.64 1003.50 1003.44 1003.48 1003.62 1003.88 1004.25 1004.73 1005.31 1005.97 1006.68 1007.41 1008.11 1008.77 1009.35 1009.86 1010.27 1010.62 1010.93 1011.22 1011.52 1011.85 1012.23 1012.65 1013.10 1013.56 1014.01 1014.43 1014.80 1015.12 1015.39 1015.63 1015.86 1016.13 1016.44 1016.83 1017.29 1017.84 1018.45 1019.08 1019.71 1020.30 1020.80
1003.80 1003.67 1003.64 1003.71 1003.88 1004.16 1004.54 1005.02 1005.59 1006.23 1006.93 1007.66 1008.40 1009.11 1009.77 1010.37 1010.90 1011.36 1011.76 1012.11 1012.44 1012.76 1013.10 1013.45 1013.82 1014.20 1014.58 1014.93 1015.26 1015.54 1015.78 1016.00 1016.20 1016.42 1016.67 1016.99 1017.38 1017.86 1018.40 1019.01 1019.63 1020.25 1020.83 1021.32
1004.05 1004.02 1004.09 1004.26 1004.54 1004.91 1005.37 1005.91 1006.52 1007.18 1007.88 1008.60 1009.31 1010.00 1010.65 1011.24 1011.78 1012.25 1012.68 1013.06 1013.41 1013.74 1014.07 1014.39 1014.71 1015.02 1015.32 1015.59 1015.84 1016.06 1016.26 1016.45 1016.65 1016.89 1017.17 1017.51 1017.94 1018.43 1018.99 1019.59 1020.21 1020.81 1021.35 1021.81
1004.63 1004.68 1004.82 1005.06 1005.39 1005.81 1006.30 1006.85 1007.46 1008.11 1008.78 1009.46 1010.13 1010.78 1011.40 1011.97 1012.50 1012.98 1013.41 1013.80 1014.15 1014.48 1014.78 1015.07 1015.33 1015.59 1015.82 1016.03 1016.23 1016.42 1016.60 1016.81 1017.04 1017.31 1017.64 1018.04 1018.51 1019.03 1019.61 1020.20 1020.80 1021.36 1021.85 1022.26
1005.47 1005.57 1005.75 1006.02 1006.36 1006.78 1007.26 1007.79 1008.37 1008.98 1009.61 1010.24 1010.87 1011.48 1012.06 1012.61 1013.12 1013.59 1014.02 1014.40 1014.74 1015.05 1015.32 1015.56 1015.78 1015.98 1016.16 1016.33 1016.50 1016.68 1016.88 1017.12 1017.40 1017.74 1018.14 1018.59 1019.11 1019.66 1020.24 1020.82 1021.38 1021.88 1022.31 1022.64
1006.47 1006.59 1006.77 1007.02 1007.34 1007.74 1008.18 1008.68 1009.22 1009.78 1010.36 1010.95 1011.54 1012.12 1012.68 1013.21 1013.71 1014.16 1014.58 1014.94 1015.26 1015.54 1015.78 1015.98 1016.15 1016.30 1016.45 1016.60 1016.76 1016.95 1017.19 1017.47 1017.81 1018.21 1018.67 1019.19 1019.74 1020.31 1020.88 1021.42 1021.92 1022.35 1022.69 1022.94
1007.47 1007.59 1007.75 1007.97 1008.26 1008.61 1009.02 1009.48 1009.98 1010.51 1011.06 1011.63 1012.20 1012.76 1013.30 1013.82 1014.31 1014.75 1015.15 1015.50 1015.80 1016.05 1016.25 1016.41 1016.55 1016.67 1016.80 1016.93 1017.10 1017.31 1017.58 1017.91 1018.31 1018.76 1019.27 1019.82 1020.39 1020.95 1021.49 1021.98 1022.41 1022.75 1023.00 1023.15
1008.36 1008.45 1008.59 1008.79 1009.04 1009.37 1009.75 1010.18 1010.66 1011.18 1011.73 1012.29 1012.86 1013.42 1013.97 1014.49 1014.97 1015.41 1015.80 1016.13 1016.41 1016.63 1016.81 1016.95 1017.06 1017.16 1017.27 1017.41 1017.59 1017.82 1018.12 1018.48 1018.91 1019.39 1019.92 1020.47 1021.03 1021.56 1022.05 1022.47 1022.82 1023.07 1023.22 1023.28
1009.05 1009.13 1009.26 1009.43 1009.68 1009.99 1010.37 1010.81 1011.30 1011.83 1012.39 1012.97 1013.56 1014.13 1014.69 1015.22 1015.70 1016.14 1016.52 1016.84 1017.11 1017.31 1017.48 1017.60 1017.70 1017.80 1017.91 1018.05 1018.23 1018.48 1018.79 1019.16 1019.59 1020.07 1020.59 1021.12 1021.63 1022.11 1022.53 1022.88 1023.14 1023.31 1023.38 1023.37
1009.54 1009.62 1009.75 1009.94 1010.20 1010.53 1010.93 1011.40 1011.92 1012.48 1013.08 1013.68 1014.29 1014.89 1015.46 1015.99 1016.48 1016.91 1017.29 1017.61 1017.87 1018.07 1018.23 1018.35 1018.46 1018.56 1018.67 1018.82 1019.01 1019.25 1019.55 1019.91 1020.32 1020.77 1021.24 1021.71 1022.17 1022.57 1022.92 1023.19 1023.38 1023.48 1023.50 1023.44
1009.90 1010.00 1010.15 1010.37 1010.66 1011.03 1011.48 1011.99 1012.55 1013.16 1013.79 1014.42 1015.06 1015.66 1016.24 1016.78 1017.26 1017.69 1018.06 1018.37 1018.63 1018.84 1019.00 1019.14 1019.26 1019.37 1019.50 1019.65 1019.84 1020.07 1020.35 1020.68 1021.04 1021.43 1021.83 1022.23 1022.60 1022.93 1023.21 1023.41 1023.55 1023.61 1023.59 1023.52
1010.22 1010.35 1010.54 1010.80 1011.15 1011.57 1012.06 1012.62 1013.23 1013.86 1014.52 1015.18 1015.81 1016.42 1016.99 1017.51 1017.98 1018.40 1018.76 1019.07 1019.33 1019.54 1019.73 1019.89 1020.03 1020.17 1020.31 1020.47 1020.65 1020.86 1021.10 1021.38 1021.68 1021.99 1022.31 1022.63 1022.92 1023.18 1023.39 1023.55 1023.65 1023.70 1023.69 1023.63
1010.60 1010.77 1011.00 1011.31 1011.70 1012.17 1012.71 1013.30 1013.94 1014.59 1015.26 1015.91 1016.53 1017.12 1017.66 1018.15 1018.60 1018.99 1019.33 1019.64 1019.90 1020.13 1020.33 1020.52 1020.69 1020.85 1021.01 1021.18 1021.35 1021.53 1021.73 1021.95 1022.17 1022.41 1022.64 1022.88 1023.09 1023.29 1023.46 1023.59 1023.69 1023.75 1023.77 1023.75
1011.12 1011.32 1011.59 1011.93 1012.36 1012.86 1013.42 1014.03 1014.67 1015.32 1015.97 1016.59 1017.18 1017.72 1018.22 1018.67 1019.07 1019.43 1019.75 1020.04 1020.31 1020.55 1020.77 1020.98 1021.18 1021.36 1021.54 1021.71 1021.87 1022.03 1022.18 1022.34 1022.49 1022.65 1022.81 1022.97 1023.12 1023.27 1023.42 1023.54 1023.66 1023.75 1023.82 1023.86
1011.77 1012.00 1012.29 1012.66 1013.10 1013.60 1014.16 1014.76 1015.38 1016.01 1016.62 1017.19 1017.73 1018.22 1018.66 1019.06 1019.41 1019.73 1020.02 1020.29 1020.55 1020.79 1021.03 1021.26 1021.47 1021.68 1021.86 1022.03 1022.18 1022.31 1022.42 1022.52 1022.62 1022.71 1022.80 1022.90 1023.01 1023.13 1023.26 1023.40 1023.54 1023.68 1023.81 1023.92
1012.53 1012.76 1013.06 1013.42 1013.85 1014.34 1014.89 1015.46 1016.04 1016.62 1017.18 1017.71 1018.19 1018.62 1019.00 1019.34 1019.64 1019.91 1020.17 1020.42 1020.66 1020.89 1021.13 1021.37 1021.59 1021.80 1021.99 1022.15 1022.29 1022.39 1022.47 1022.52 1022.57 1022.61 1022.65 1022.71 1022.78 1022.89 1023.02 1023.17 1023.35 1023.53 1023.71 1023.88
Thickness
5772 5780 5777 5768 5768 5775 5778 5785 5782 5787 5787 5786 5789 5791 5793 5798 5800 5799 5795 5792 5787 5780 5774 5769 5764 5760 5755 5751 5748 5744 5738 5734 5729 5726 5724 5722 5721 5719 5718 5717 5715 5713 5712 5709
5753 5768 5771 5762 5766 5768 5772 5782 5786 5791 5790 5801 5799 5796 5794 5795 5795 5790 5790 5788 5784 5779 5773 5768 5763 5759 5755 5750 5747 5743 5737 5733 5729 5726 5722 5719 5718 5716 5714 5712 5710 5708 5704 5702
5733 5753 5755 5748 5765 5767 5770 5781 5783 5779 5788 5797 5792 5789 5786 5788 5787 5785 5787 5785 5780 5775 5771 5767 5763 5759 5753 5749 5745 5740 5734 5731 5727 5723 5719 5717 5715 5711 5709 5706 5704 5701 5697 5694
5725 5727 5713 5752 5785 5783 5777 5781 5786 5785 5788 5789 5786 5787 5787 5786 5784 5783 5780 5779 5778 5773 5769 5766 5762 5757 5751 5746 5741 5736 5731 5727 5724 5719 5715 5711 5709 5705 5702 5700 5697 5693 5689 5685
5714 5714 5724 5753 5771 5773 5766 5763 5774 5773 5775 5778 5782 5780 5778 5783 5785 5780 5777 5776 5773 5770 5767 5762 5757 5752 5746 5740 5735 5729 5725 5721 5718 5715 5710 5704 5700 5697 5694 5691 5687 5683 5678 5674
5705 5700 5704 5737 5764 5772 5762 5743 5756 5760 5758 5761 5766 5753 5753 5769 5772 5772 5769 5767 5764 5762 5759 5753 5749 5745 5738 5731 5726 5721 5718 5714 5711 5708 5702 5697 5692 5688 5684 5681 5676 5672 5667 5662
5695 5695 5712 5739 5754 5753 5725 5720 5741 5747 5747 5748 5745 5745 5748 5755 5755 5756 5756 5755 5753 5750 5745 5741 5738 5734 5727 5722 5717 5714 5711 5706 5702 5698 5693 5688 5683 5679 5675 5671 5665 5659 5654 5649
5690 5687 5698 5725 5731 5719 5714 5728 5733 5735 5737 5736 5735 5737 5739 5737 5738 5738 5738 5738 5737 5734 5730 5728 5726 5723 5715 5710 5707 5705 5701 5696 5691 5687 5684 5678 5673 5668 5664 5659 5654 5649 5644 5639
5689 5691 5704 5713 5713 5717 5721 5719 5722 5725 5728 5728 5723 5721 5722 5721 5721 5721 5721 5720 5720 5718 5714 5712 5711 5709 5702 5697 5695 5692 5687 5682 5678 5674 5669 5665 5661 5656 5652 5648 5645 5640 5635 5630
5684 5692 5697 5702 5706 5708 5710 5710 5714 5717 5718 5718 5713 5710 5707 5706 5704 5703 5703 5703 5702 5701 5697 5694 5693 5691 5688 5685 5682 5678 5672 5667 5663 5658 5654 5649 5646 5642 5637 5634 5631 5628 5622 5616
5674 5681 5685 5689 5691 5695 5698 5702 5704 5705 5705 5704 5701 5697 5695 5691 5689 5688 5687 5686 5686 5683 5679 5676 5675 5674 5672 5670 5667 5663 5658 5653 5649 5644 5638 5631 5626 5621 5617 5611 5611 5610 5605 5599
5662 5669 5669 5671 5679 5684 5684 5686 5688 5687 5686 5686 5686 5683 5680 5676 5674 5673 5671 5670 5669 5666 5664 5661 5660 5658 5656 5655 5652 5648 5644 5640 5636 5632 5626 5620 5613 5604 5597 5595 5593 5590 5587 5582
5661 5665 5665 5668 5672 5674 5673 5675 5676 5674 5672 5670 5669 5667 5665 5661 5659 5657 5656 5655 5653 5650 5648 5646 5644 5642 5640 5640 5638 5635 5632 5628 5625 5620 5615 5610 5604 5598 5588 5580 5577 5573 5570 5566
5656 5656 5655 5657 5659 5662 5664 5664 5663 5661 5658 5656 5653 5651 5648 5645 5643 5641 5640 5639 5638 5636 5633 5632 5630 5627 5625 5625 5623 5621 5618 5615 5612 5609 5605 5601 5596 5591 5585 5578 5571 5563 5556 5552
5648 5649 5648 5650 5651 5650 5651 5650 5646 5643 5641 5639 5637 5635 5632 5630 5627 5625 5625 5624 5623 5621 5618 5617 5616 5613 5612 5611 5609 5606 5605 5603 5601 5598 5595 5591 5588 5585 5579 5572 5565 5557 5549 5542
5640 5642 5642 5642 5640 5640 5639 5637 5633 5630 5628 5625 5622 5620 5618 5616 5614 5612 5611 5610 5609 5606 5605 5604 5603 5602 5601 5600 5598 5595 5592 5590 5589 5588 5585 5582 5578 5573 5567 5561 5554 5546 5539 5532
5632 5632 5632 5632 5632 5631 5629 5628 5625 5621 5618 5615 5611 5609 5608 5605 5603 5601 5600 5600 5598 5596 5595 5594 5593 5592 5592 5591 5590 5587 5584 5581 5578 5578 5574 5570 5565 5559 5553 5547 5540 5533 5525 5517
5630 5630 5629 5628 5626 5623 5620 5619 5616 5613 5609 5606 5604 5602 5599 5597 5595 5593 5591 5591 5589 5588 5587 5586 5585 5583 5582 5581 5580 5579 5576 5573 5569 5565 5559 5554 5549 5544 5539 5533 5527 5520 5513 5506
5624 5623 5622 5620 5619 5618 5614 5611 5609 5606 5603 5600 5598 5595 5593 5591 5589 5587 5585 5583 5581 5579 5576 5576 5574 5574 5573 5570 5570 5569 5567 5562 5557 5551 5545 5538 5536 5531 5525 5519 5513 5506 5499 5493
5616 5617 5616 5614 5613 5611 5608 5605 5603 5600 5598 5595 5592 5589 5587 5585 5583 5582 5579 5577 5574 5572 5570 5568 5567 5566 5564 5562 5561 5560 5556 5551 5545 5539 5533 5528 5522 5516 5510 5505 5498 5492 5485 5479
5609 5610 5610 5608 5607 5605 5603 5601 5598 5594 5592 5590 5587 5584 5582 5579 5577 5575 5572 5567 5564 5563 5562 5559 5559 5556 5554 5552 5549 5547 5543 5537 5532 5526 5520 5514 5509 5503 5497 5490 5484 5477 5471 5464
5603 5603 5602 5601 5600 5598 5597 5595 5593 5590 5587 5584 5582 5580 5576 5573 5569 5566 5563 5560 5557 5554 5554 5552 5549 5544 5541 5539 5539 5534 5529 5524 5518 5512 5506 5501 5495 5489 5483 5477 5470 5464 5458 5452
5596 5595 5594 5593 5592 5591 5590 5588 5587 5585 5582 5579 5576 5573 5570 5567 5564 5560 5554 5552 5550 5545 5544 5540 5535 5531 5528 5529 5526 5521 5516 5510 5505 5500 5494 5489 5483 5477 5470 5465 5459 5453 5447 5442
5590 5589 5588 5587 5586 5584 5581 5581 5580 5578 5575 5572 5569 5567 5564 5561 5557 5553 5548 5542 5540 5536 5533 5527 5524 5520 5517 5517 5513 5508 5503 5498 5493 5489 5483 5477 5472 5466 5460 5455 5449 5444 5438 5433
5584 5584 5582 5580 5578 5577 5575 5574 5572 5570 5568 5565 5563 5560 5558 5555 5550 5545 5539 5533 5528 5526 5521 5516 5512 5509 5508 5507 5502 5496 5491 5486 5482 5477 5472 5466 5461 5456 5450 5445 5440 5435 5430 5425
5579 5578 5577 5577 5575 5574 5573 5571 5568 5565 5563 5559 5556 5553 5550 5545 5540 5535 5530 5525 5521 5515 5513 5508 5505 5501 5500 5497 5491 5486 5481 5476 5472 5467 5461 5457 5451 5446 5442 5437 5432 5428 5423 5418
5573 5573 5572 5572 5572 5570 5568 5566 5563 5559 5556 5553 5548 5544 5540 5536 5532 5527 5523 5517 5513 5509 5506 5503 5499 5496 5492 5488 5483 5478 5473 5468 5463 5458 5454 5449 5444 5439 5435 5430 5426 5421 5417 5413